Location: Preissac
(48.4072°N, 78.3618°W)
Time: 19:36:11
(UTC-04:00)

Envisat - Pass Details

Date: 01 September 2019
Orbit: 764 x 766 km, 98.1° (Epoch: 17 September)

Event Time Altitude Azimuth Distance (km) Brightness Sun altitude
Rises 20:29:46 0° 203° (SSW) 3,220 6.3 -6.3°
Reaches altitude 10° 20:32:34 10° 219° (SW) 2,299 5.7 -6.7°
Maximum altitude 20:36:26 22° 269° (W) 1,644 5.8 -7.3°
Drops below altitude 10° 20:40:19 10° 319° (NW) 2,312 6.6 -7.9°
Sets 20:43:10 0° 335° (NNW) 3,243 7.1 -8.4°
